Location: ??????
(41.3164°N, 22.6615°E)
Time: 17:06:49
(UTC+00:00)

Cosmos 1300 - Pass Details

Date: 29 May 2022
Orbit: 506 x 508 km, 82.5° (Epoch: 01 July)

Event Time Altitude Azimuth Distance (km) Brightness Sun altitude
Rises 22:12:53 0° 6° (N) 2,619 7.5 -26.9°
Reaches altitude 10° 22:15:24 10° 22° (NNE) 1,728 6.2 -26.9°
Enters shadow 22:17:38 20° 57° (ENE) 1,203 4.8 -26.9°
